Location: ????????
(56.1167°N, 38.6333°E)
Time: 12:20:58
(UTC+00:00)

AQUARIUS - Pass Details

Date: 18 November 2025
Orbit: 634 x 636 km, 98.0° (Epoch: 10 December)

Event Time Altitude Azimuth Distance (km) Brightness Sun altitude
Rises 14:29:41 0° 151° (SSE) 2,927 7.4 -10.5°
Reaches altitude 10° 14:31:53 10° 147° (SSE) 2,022 6.6 -10.8°
Maximum altitude 14:36:13 59° 69° (ENE) 739 4.1 -11.3°
Drops below altitude 10° 14:40:34 10° 350° (N) 2,036 6.6 -11.9°
Sets 14:42:48 0° 347° (NNW) 2,949 7.5 -12.2°
